Tracking 35274 objects as of 12-Sep-2026
HD Live streaming from Space Station
objects crossing your sky now

KEPLER-14 (STELLA)


KEPLER-14 (STELLA) is no longer on orbit


NORAD ID: 47526
Int'l Code: 2021-006DS
Launch date: January 24, 2021
Source: Canada (CA)
Launch site: AIR FORCE EASTERN TEST RANGE (AFETR)
Decay date: 2024-12-24
Your satellite tracking list
Your tracking list is empty




NASA's NSSDC Master Catalog

Two Line Element Set (TLE):
1 47526U 21006DS  24352.13475928  .04126026  23913-5  13975-2 0  9999
2 47526  97.2746  49.8909 0006514 262.6907  97.3644 16.25601142217683
Source of the keplerian elements: AFSPC